Regional Weather Roundup
Issued by NWS Newport/Morehead, NC

Current Version | Previous Version | Text Only | Print | Product List | Glossary On
Versions: 1 2 3 4 5 6 7 8 9 10 11 12 13 14 15 16 17 18 19 20 21 22 23 24 25 26 27 28 29 30 31 32 33 34 35 36 37 38 39 40 41 42 43 44 45 46 47 48 49 50
000 ASUS42 KMHX 150010 RWRMHX WEATHER ROUNDUP FOR EASTERN NORTH CAROLINA NATIONAL WEATHER SERVICE NEWPORT/MOREHEAD CITY NC 800 PM EDT SUN SEP 14 2014 NOTE: "FAIR" INDICATES FEW OR NO CLOUDS BELOW 12,000 FEET WITH NO SIGNIFICANT WEATHER AND/OR OBSTRUCTIONS TO VISIBILITY NCZ015>017-031-032-045>047-102-103-150100- NORTH COAST CITY SKY/WX TMP DP RH WIND PRES REMARKS EDENTON CLOUDY 68 62 80 NE3 30.20F ELIZABETH CITY CLOUDY 68 58 70 NE9 30.21S KITTY HAWK PTCLDY 67 57 69 N6 30.20S MANTEO PTCLDY 67 58 71 NE10 30.21S $$ NCZ045>047-081-094-103-104-150100- CENTRAL COAST CITY SKY/WX TMP DP RH WIND PRES REMARKS FRISCO CLOUDY 69 64 84 N8G18 30.18S SWANQUARTER N/A 68 N/A N/A NE2 30.15S $$ NCZ095-097-098-100-101-150100- SOUTHERN COAST CITY SKY/WX TMP DP RH WIND PRES REMARKS BEAUFORT CLOUDY 72 65 78 NE10 30.17F CEDAR ISLAND N/A 73 N/A N/A N10G16 30.24S JACKSONVILLE CLOUDY 72 66 81 E8 30.18S NEWPORT NOT AVBL PINEY ISLAND CLOUDY 73 63 70 NE10 30.18F WILMINGTON CLOUDY 71 67 87 N6 30.18R $$ NCZ011>013-027>030-043-044-078>080-089-090>093-098-150100- COASTAL PLAIN CITY SKY/WX TMP DP RH WIND PRES REMARKS AHOSKIE CLOUDY 63 59 88 N3 30.22S CLINTON CLOUDY 70 68 94 CALM 30.20R ELIZABETHTOWN CLOUDY 68 64 87 CALM 30.20R GOLDSBORO CLOUDY 71 68 92 CALM 30.18S GREENVILLE CLOUDY 70 63 78 N3 30.21S HAVELOCK CLOUDY 73 64 73 NE9 30.19F KENANSVILLE CLOUDY 70 66 88 CALM 30.21R KINSTON CLOUDY 72 63 73 N5 30.20S NEW BERN CLOUDY 74 65 73 E5 30.20S RICHLANDS CLOUDY 70 64 83 CALM 30.19S ROANOKE RAPIDS NOT AVBL ROCKY MOUNT CLOUDY 66 60 81 N9 30.21S WASHINGTON MOCLDY 69 63 80 NE3 30.20S WHITEVILLE CLOUDY 68 64 88 CALM 30.19S $$ AMZ130-135-150-152-154-156-158-170-250-252-270-ANZ085-086-088-633-658-670-150100- MARINE OBSERVATIONS STATION/POSITION TIME TEMP WIND PRES WAVE SWELL AIR SEA DIR/SP/G HT/PER HT/PER (UTC) (F) (DEG/KT/KT) (MB) (FT/S) (FT/S) CHESAPEAKE LIGHT 2300 67 10/ 8/ 9 1023.5 BUOY 44014 0000 70 80 360/ 12/ 14 1022.2 4/ 7 3/ 7 DUCK 0000 69 77 30/ 12/ 14 1022.0 2E DUCK 0000 N/A 4/ 7 OREGON INLET 0000 69 77 10/ 8/ 14 1022.5 BUOY 44095 0000 76 N/A 5/ 7 20E OREGON INLET NOT AVBL HATTERAS CG 0000 72 79 20/ 16/ 21 1022.4 DIAMOND BUOY 0000 73 360/ 19/ 23 1020.9 4/ 7 2/14 CAPE LOOKOUT 2300 73 20/ 11/ 13 1021.7 BEAUFORT LAB 0000 72 81 20/ 8/ 11 1021.4 30 SE NEW RIVER 2300 76 82 50/ 16/ 19 1021.2 5 SE WRIGHTSVILL 2300 71 82 10/ 14/ 16 N/A BUOY 41002 NOT AVBL BUOY 41004 0000 80 83 70/ 2/ 4 1020.5 2/ 5 2/ 5 $$

USA.gov is the U.S. government's official web portal to all federal, state and local government web resources and services.